Date String (YYYY-MM-DD hh:mm:ss) UTC,Instrument flags,Ambient pressure (hPa),Sample flow (lpm),Bypass flow (lpm),Sample temperature (°C),Ambient temperature (°C),ASC tube jacket temperature (°C),LED temperature (°C),Box temperature (°C),Sample RH (%),Span deviation,Mass concentration (μg/m³),Mass concentration (μg/m³),Mass concentration (μg/m³)
DateTimeUTC,F1_M11,P_M11,Q1_M11,Q2_M11,T1_M11,T2_M11,T3_M11,T4_M11,T5_M11,U1_M11,ZSPAN_M11,X2_M11,X0_M11,X1_M11
2022-07-03 10:00:00,,0825.3,5.00,0.00,30.0,29.0,00.0,38.7,31.9,21.9,0000.0,0003.93,0010.40,0003.29
2022-07-03 10:01:00,,0825.3,5.00,0.00,30.0,28.7,00.0,38.7,31.9,21.7,0000.0,0003.92,0009.87,0003.28
2022-07-03 10:02:00,,0825.3,5.00,0.00,29.9,27.9,00.0,38.6,31.7,21.6,0000.0,0003.89,0009.73,0003.27
2022-07-03 10:03:00,,0825.3,5.01,0.00,29.9,27.5,00.0,38.6,31.6,21.5,0000.0,0003.88,0009.97,0003.26
2022-07-03 10:04:00,,0825.3,5.00,0.00,29.8,27.4,00.0,38.6,31.5,21.6,0000.0,0003.85,0010.00,0003.24
2022-07-03 10:05:00,,0825.3,4.98,0.00,29.7,27.5,00.0,38.5,31.4,21.8,0000.0,0003.82,0009.84,0003.23
2022-07-03 10:06:00,,0825.3,4.99,0.00,29.7,27.6,00.0,38.5,31.4,21.9,0000.0,0003.84,0009.88,0003.22
2022-07-03 10:07:00,,0825.2,5.01,0.00,29.7,27.7,00.0,38.5,31.4,21.8,0000.0,0003.87,0010.20,0003.23
2022-07-03 10:08:00,,0825.2,5.00,0.00,29.7,27.8,00.0,38.5,31.5,21.9,0000.0,0003.91,0010.19,0003.22
2022-07-03 10:09:00,,0825.2,5.00,0.00,29.7,28.0,00.0,38.5,31.5,22.0,0000.0,0003.89,0009.17,0003.20
2022-07-03 10:10:00,,0825.2,5.01,0.00,29.7,28.1,00.0,38.5,31.5,22.1,0000.0,0003.85,0008.50,0003.18
2022-07-03 10:11:00,,0825.2,4.99,0.00,29.7,28.2,00.0,38.5,31.5,22.1,0000.0,0003.80,0008.55,0003.17
2022-07-03 10:12:00,,0825.3,5.00,0.00,29.7,28.3,00.0,38.5,31.5,22.1,0000.0,0003.77,0008.42,0003.17
2022-07-03 10:13:00,,0825.3,5.01,0.00,29.7,28.3,00.0,38.5,31.6,22.1,0000.0,0003.77,0008.25,0003.17
2022-07-03 10:14:00,,0825.3,5.00,0.00,29.7,28.4,00.0,38.5,31.6,22.1,0000.0,0003.75,0007.80,0003.16
2022-07-03 10:15:00,,0825.3,5.00,0.00,29.7,28.5,00.0,38.5,31.6,22.1,0000.0,0003.71,0007.65,0003.16
2022-07-03 10:16:00,,0825.3,5.01,0.00,29.7,28.5,00.0,38.5,31.6,22.0,0000.0,0003.69,0007.58,0003.15
2022-07-03 10:17:00,,0825.3,5.00,0.00,29.7,28.6,00.0,38.5,31.7,22.0,0000.0,0003.68,0007.56,0003.16
2022-07-03 10:18:00,,0825.3,4.99,0.00,29.8,28.6,00.0,38.5,31.7,22.0,0000.0,0003.66,0007.34,0003.15
2022-07-03 10:19:00,,0825.4,4.98,0.00,29.8,28.7,00.0,38.5,31.7,22.0,0000.0,0003.65,0006.77,0003.17
2022-07-03 10:20:00,,0825.4,5.00,0.00,29.8,28.7,00.0,38.5,31.8,22.1,0000.0,0003.67,0006.74,0003.19
2022-07-03 10:21:00,,0825.4,5.00,0.00,29.8,28.8,00.0,38.6,31.8,22.8,0000.0,0003.73,0007.00,0003.21
2022-07-03 10:22:00,,0825.5,5.01,0.00,29.9,28.8,00.0,38.6,31.7,23.2,0000.0,0003.75,0007.91,0003.23
2022-07-03 10:23:00,,0825.4,5.00,0.00,29.9,28.8,00.0,38.6,31.8,24.0,0000.0,0003.84,0008.23,0003.26
2022-07-03 10:24:00,,0825.4,4.99,0.00,29.9,28.9,00.0,38.6,31.8,24.0,0000.0,0003.98,0009.10,0003.29
2022-07-03 10:25:00,,0825.4,4.99,0.00,29.9,28.9,00.0,38.6,31.9,23.5,0000.0,0004.07,0009.81,0003.32
2022-07-03 10:26:00,,0825.5,5.00,0.00,29.9,29.0,00.0,38.6,31.9,23.3,0000.0,0004.18,0010.75,0003.37
2022-07-03 10:27:00,,0825.4,5.00,0.00,30.0,29.0,00.0,38.7,31.9,23.2,0000.0,0004.33,0011.05,0003.43
2022-07-03 10:28:00,,0825.4,5.01,0.00,30.0,29.0,00.0,38.7,31.9,23.5,0000.0,0004.49,0011.46,0003.48
2022-07-03 10:29:00,,0825.4,5.00,0.00,30.0,29.0,00.0,38.7,32.0,23.7,0000.0,0004.59,0011.81,0003.52
2022-07-03 10:30:00,,0825.4,5.00,0.00,30.0,29.1,00.0,38.7,32.0,23.9,0000.0,0004.70,0012.32,0003.55
2022-07-03 10:31:00,,0825.4,5.01,0.00,30.0,28.7,00.0,38.7,31.9,24.2,0000.0,0004.81,0012.89,0003.60
2022-07-03 10:32:00,,0825.3,4.99,0.00,30.0,27.9,00.0,38.7,31.8,24.5,0000.0,0004.90,0012.99,0003.66
2022-07-03 10:33:00,,0825.3,5.00,0.00,30.0,27.5,00.0,38.6,31.7,24.9,0000.0,0005.00,0012.31,0003.72
2022-07-03 10:34:00,,0825.3,5.00,0.00,29.9,27.4,00.0,38.6,31.6,25.2,0000.0,0005.02,0012.44,0003.77
2022-07-03 10:35:00,,0825.3,5.00,0.00,29.8,27.5,00.0,38.6,31.5,25.5,0000.0,0005.02,0011.82,0003.84
2022-07-03 10:36:00,,0825.4,5.00,0.00,29.7,27.6,00.0,38.6,31.5,25.7,0000.0,0005.07,0011.46,0003.90
2022-07-03 10:37:00,,0825.3,5.01,0.00,29.7,27.8,00.0,38.6,31.5,25.9,0000.0,0005.08,0011.02,0003.97
2022-07-03 10:38:00,,0825.3,5.01,0.00,29.7,27.9,00.0,38.6,31.5,26.2,0000.0,0005.13,0011.11,0004.05
2022-07-03 10:39:00,,0825.3,5.00,0.00,29.7,28.0,00.0,38.5,31.5,26.1,0000.0,0005.14,0011.09,0004.12
2022-07-03 10:40:00,,0825.3,5.00,0.00,29.7,28.2,00.0,38.5,31.6,26.1,0000.0,0005.15,0011.16,0004.19
2022-07-03 10:41:00,,0825.4,5.01,0.00,29.7,28.3,00.0,38.6,31.6,26.0,0000.0,0005.13,0011.29,0004.25
2022-07-03 10:42:00,,0825.3,5.00,0.00,29.7,28.4,00.0,38.6,31.6,25.9,0000.0,0005.12,0010.93,0004.30
2022-07-03 10:43:00,,0825.3,5.01,0.00,29.8,28.4,00.0,38.6,31.7,25.8,0000.0,0005.10,0010.80,0004.33
2022-07-03 10:44:00,,0825.3,4.99,0.00,29.8,28.5,00.0,38.6,31.7,25.7,0000.0,0005.11,0011.09,0004.35
2022-07-03 10:45:00,,0825.3,5.00,0.00,29.8,28.6,00.0,38.6,31.7,25.6,0000.0,0005.13,0011.30,0004.38
2022-07-03 10:46:00,,0825.3,5.00,0.00,29.8,28.6,00.0,38.6,31.7,25.5,0000.0,0005.12,0011.22,0004.38
2022-07-03 10:47:00,,0825.3,5.00,0.00,29.8,28.7,00.0,38.6,31.7,25.3,0000.0,0005.09,0011.61,0004.37
2022-07-03 10:48:00,,0825.3,4.99,0.00,29.8,28.8,00.0,38.6,31.7,24.9,0000.0,0005.08,0011.40,0004.35
2022-07-03 10:49:00,,0825.3,5.00,0.00,29.9,28.8,00.0,38.6,31.8,24.8,0000.0,0005.07,0011.44,0004.31
2022-07-03 10:50:00,,0825.3,5.00,0.00,29.9,28.8,00.0,38.6,31.8,24.6,0000.0,0005.02,0011.68,0004.27
2022-07-03 10:51:00,,0825.3,5.00,0.00,29.9,28.9,00.0,38.6,31.9,24.6,0000.0,0005.01,0011.70,0004.23
2022-07-03 10:52:00,,0825.3,4.99,0.00,29.9,28.9,00.0,38.7,31.9,24.6,0000.0,0004.98,0011.63,0004.18
2022-07-03 10:53:00,,0825.4,5.00,0.00,30.0,28.9,00.0,38.7,31.9,24.5,0000.0,0004.93,0011.62,0004.14
2022-07-03 10:54:00,,0825.4,5.00,0.00,30.0,29.0,00.0,38.7,31.9,24.4,0000.0,0004.92,0011.89,0004.11
2022-07-03 10:55:00,,0825.4,5.00,0.00,30.0,29.0,00.0,38.7,31.9,24.4,0000.0,0004.88,0011.83,0004.08
2022-07-03 10:56:00,,0825.4,5.00,0.00,30.0,29.0,00.0,38.7,31.9,24.4,0000.0,0004.84,0011.08,0004.03
2022-07-03 10:57:00,,0825.3,5.00,0.00,30.0,29.1,00.0,38.7,32.0,24.4,0000.0,0004.80,0010.97,0004.00
2022-07-03 10:58:00,,0825.4,5.00,0.00,30.1,29.1,00.0,38.8,32.0,24.3,0000.0,0004.77,0010.66,0003.97
2022-07-03 10:59:00,,0825.3,5.00,0.00,30.1,29.1,00.0,38.8,32.0,24.2,0000.0,0004.75,0010.33,0003.94
